{"data":{"norad_id":59042,"intl_designator":"2024-038V","name":"STARLINK-31202","alt_names":[],"object_type":"PAYLOAD","status":"ACTIVE","operator":null,"country":"US","launch_date":"2024-02-25","launch_site_code":"AFETR","launch_vehicle":null,"mission":null,"orbit_class":"UNKNOWN","rcs_meters":null,"size_class":null,"mass_kg":null,"dimensions":null,"purposes":["comms"],"wikipedia_slug":null,"has_3d_model":false,"image_url":null,"decayed_at":null,"tle_current":{"epoch":"2026-09-20T06:22:01.855200Z","epoch_age_seconds":176626,"freshness":"STALE","line1":"1 59042U 24038V   26263.26529925  .00001113  00000+0  54875-4 0  9994","line2":"2 59042  42.9994   2.3373 0001048 271.2251  88.8479 15.24245500144641","mean_motion":15.242455,"eccentricity":0.0001048,"inclination_deg":42.9994,"raan_deg":2.3373,"arg_perigee_deg":271.2251,"mean_anomaly_deg":88.8479,"bstar":5.4875e-5,"rev_number":14464,"period_min":94.472970397485,"perigee_km":492.33188601776,"apogee_km":493.77208722935,"semimajor_km":6871.1889866236,"source":"CELESTRAK","updated_at":"2026-09-21T09:00:34.032304Z"}}}